Tracking 30922 objects as of 2-Jul-2025
HD Live streaming from Space Station
objects crossing your sky now

STARLINK-31183

Track STARLINK-31183 now!
10-day predictions
STARLINK-31183 is classified as:


NORAD ID: 58747
Int'l Code: 2024-005V
Perigee: 565.4 km
Apogee: 567.0 km
Inclination: 43.0 °
Period: 95.8 minutes
Semi major axis: 6937 km
RCS: Unknown
Launch date: January 7, 2024
Source: United States (US)
Launch site: AIR FORCE EASTERN TEST RANGE (AFETR)
Your satellite tracking list
STARLINK-3276
Track 1 satellite(s)




NASA's NSSDC Master Catalog

Two Line Element Set (TLE):
1 58747U 24005V   25182.60265727 -.00000215  00000-0 -88002-6 0  9999
2 58747  43.0037 145.7973 0001108 297.5742  62.4988 15.02538772 82751
Source of the keplerian elements: AFSPC